User: anonymous   Login
Location: Mentone
(34.5413°N, 85.5351°W)
Time: 21:51:48
(UTC-05:00)
Language:

Cosmos 2150 Rocket - Orbit

View from above orbital plane
View from above orbital plane
View from above satellite
View from above satellite

Ground track
Ground track

The orbit data is extracted from the following two-line orbital elements,

1 21419U 91041B   16209.20815685  .00000000  00000-0  94174-5 0  9995
2 21419  74.0394 173.9153 0041143 182.0622 274.8824 14.33821368313897
Epoch (UTC): 27 July 2016 04:59:44
Eccentricity: 0.0041143
inclination: 74.0394°
perigee height: 749 km
apogee height: 808 km
right ascension of ascending node: 173.9153°
argument of perigee: 182.0622°
revolutions per day: 14.33821368
mean anomaly at epoch: 274.8824°
orbit number at epoch: 31389

The dashed part of the orbit path shows where the satellite is in the earth's shadow,  

DLR